DW3201 Weather Reports


Display with metric or nautical units.
time (UTC)temp
F
wind
direction
speed
MPH
gust
MPH
rain 1hr
in
rain 24hr
in
rain mn
in
humidity
%
barometer
mb
20260510194601 60 277 4.0 9.0 0.00 0.00 0.00 28 1017.9
20260510193104 60 284 3.0 12.0 0.00 0.00 0.00 30 1017.9
20260510191559 61 82 4.0 13.0 0.00 0.00 0.00 28 1017.9
20260510190104 61 274 5.0 11.0 0.00 0.00 0.00 28 1017.8
20260510184553 60 38 4.0 7.0 0.00 0.00 0.00 26 1017.9
20260510183104 60 285 4.0 15.0 0.00 0.00 0.00 26 1017.8
20260510181554 60 270 8.0 13.0 0.00 0.00 0.00 27 1017.9
20260510180053 62 344 2.0 5.0 0.00 0.00 0.00 26 1017.9
20260510174556 59 190 2.0 6.0 0.00 0.00 0.00 32 1018.1
20260510173111 58 264 5.0 8.0 0.00 0.00 0.00 33 1018.1
20260510171557 58 257 1.0 8.0 0.00 0.00 0.00 34 1018.2
20260510170100 58 92 2.0 8.0 0.00 0.00 0.00 34 1018.1
20260510164613 60 326 6.0 13.0 0.00 0.00 0.00 31 1018.2
20260510163102 59 286 4.0 11.0 0.00 0.00 0.00 32 1018.1
20260510161556 60 283 1.0 9.0 0.00 0.00 0.00 32 1018.1
20260510160056 58 152 5.0 10.0 0.00 0.00 0.00 32 1018.1
20260510154554 57 310 1.0 9.0 0.00 0.00 0.00 37 1018.0
20260510153055 56 274 5.0 9.0 0.00 0.00 0.00 36 1018.1
20260510151611 56 235 1.0 5.0 0.00 0.00 0.00 39 1017.9
20260510150103 55 259 3.0 7.0 0.00 0.00 0.00 39 1018.0
20260510144558 55 249 2.0 4.0 0.00 0.00 0.00 39 1017.9
20260510143057 54 235 2.0 5.0 0.00 0.00 0.00 40 1018.0
20260510141601 54 23 0.0 2.0 0.00 0.00 0.00 44 1017.9
20260510140057 52 125 1.0 4.0 0.00 0.00 0.00 49 1017.8
20260510134601 52 117 1.0 3.0 0.00 0.00 0.00 50 1017.8
20260510133055 51 243 0.0 2.0 0.00 0.00 0.00 50 1017.8
20260510131555 50 281 1.0 2.0 0.00 0.00 0.00 57 1017.6
20260510130054 48 284 0.0 3.0 0.00 0.00 0.00 63 1017.5
20260510124608 47 260 1.0 2.0 0.00 0.00 0.00 65 1017.2
20260510123054 45 266 1.0 2.0 0.00 0.00 0.00 68 1017.1
20260510121557 43 281 1.0 3.0 0.00 0.00 0.00 72 1017.2
20260510120056 43 294 0.0 1.0 0.00 0.00 0.00 76 1017.0
20260510114606 39 266 0.0 0.0 0.00 0.00 0.00 83 1016.8
20260510113055 38 0 0.0 1.0 0.00 0.00 0.00 88 1016.6
20260510111554 35 255 0.0 0.0 0.00 0.00 0.00 91 1016.4
20260510110101 34 0 0.0 0.0 0.00 0.00 0.00 91 1016.1
20260510104614 34 0 0.0 0.0 0.00 0.00 0.00 91 1016.0
20260510103055 35 0 0.0 0.0 0.00 0.00 0.00 90 1015.8
20260510101553 35 0 0.0 0.0 0.00 0.00 0.00 90 1015.7
20260510100058 36 0 0.0 0.0 0.00 0.00 0.00 90 1015.5
20260510094600 36 0 0.0 0.0 0.00 0.00 0.00 88 1015.3
20260510093059 36 0 0.0 0.0 0.00 0.00 0.00 88 1015.3
20260510091554 36 0 0.0 0.0 0.00 0.00 0.00 87 1015.2
20260510090056 36 0 0.0 0.0 0.00 0.00 0.00 86 1015.0
20260510084559 37 0 0.0 0.0 0.00 0.00 0.00 87 1014.7
20260510083101 37 0 0.0 0.0 0.00 0.00 0.00 85 1014.5
20260510081554 38 0 0.0 0.0 0.00 0.00 0.00 83 1014.4
20260510080052 39 0 0.0 0.0 0.00 0.00 0.00 83 1014.1
20260510074618 40 0 0.0 0.0 0.00 0.00 0.00 82 1013.8
20260510073058 40 0 0.0 0.0 0.00 0.00 0.00 81 1013.6
20260510071601 41 0 0.0 0.0 0.00 0.00 0.00 79 1013.5
20260510070057 41 0 0.0 0.0 0.00 0.00 0.00 76 1013.4
20260510064609 42 0 0.0 1.0 0.00 0.00 0.00 70 1013.3
20260510063100 43 0 0.0 1.0 0.00 0.00 0.00 66 1013.2
20260510061554 44 0 0.0 1.0 0.00 0.00 0.00 64 1013.2
20260510060058 45 0 0.0 1.0 0.00 0.00 0.00 61 1013.0
20260510054554 46 65 0.0 3.0 0.00 0.00 0.00 60 1012.8
20260510053054 46 34 2.0 7.0 0.00 0.00 0.00 59 1012.8
20260510051602 47 58 4.0 12.0 0.00 0.00 0.00 56 1012.5
20260510050055 49 36 5.0 9.0 0.00 0.00 0.00 51 1012.3
20260510044556 50 82 5.0 10.0 0.00 0.00 0.00 49 1011.7
20260510043101 50 0 0.0 1.0 0.00 0.00 0.00 47 1011.2
20260510041609 50 210 0.0 2.0 0.00 0.00 0.00 46 1011.0
20260510040054 49 177 0.0 1.0 0.00 0.00 0.00 51 1010.8
20260510034559 50 0 0.0 2.0 0.00 0.00 0.00 49 1010.6
20260510033103 51 0 0.0 1.0 0.00 0.00 0.00 49 1010.3
20260510031602 52 0 0.0 1.0 0.00 0.00 0.00 46 1010.2
20260510030105 53 0 0.0 2.0 0.00 0.00 0.00 44 1010.0
20260510024603 53 233 0.0 1.0 0.00 0.00 0.00 44 1009.8
20260510023053 53 249 0.0 4.0 0.00 0.00 0.00 46 1009.5
20260510021553 53 0 0.0 2.0 0.00 0.00 0.00 51 1009.3
20260510020054 53 0 0.0 1.0 0.00 0.00 0.00 53 1008.9
20260510014554 55 0 0.0 0.0 0.00 0.00 0.00 52 1008.5
20260510013105 56 0 0.0 1.0 0.00 0.00 0.00 46 1008.2
20260510011553 57 0 0.0 1.0 0.00 0.00 0.00 43 1007.8
20260510010105 59 0 0.0 1.0 0.00 0.00 0.00 40 1007.4
20260510004600 60 0 0.0 5.0 0.00 0.00 0.00 38 1007.2
20260510003056 61 0 0.0 4.0 0.00 0.00 0.00 37 1006.9
20260510001552 62 226 3.0 8.0 0.00 0.00 0.00 36 1006.6
20260510000108 63 170 1.0 8.0 0.00 0.00 0.00 36 1006.3
20260509234604 63 0 1.0 7.0 0.00 0.00 0.00 37 1006.1
20260509233053 64 295 2.0 7.0 0.00 0.00 0.00 36 1006.1
20260509231557 65 48 2.0 6.0 0.00 0.00 0.00 36 1005.9
20260509230053 65 275 1.0 9.0 0.00 0.00 0.00 36 1005.7
20260509224554 65 302 1.0 5.0 0.00 0.00 0.00 35 1005.5
20260509223051 66 271 1.0 10.0 0.00 0.00 0.00 35 1005.4
20260509221608 66 347 4.0 9.0 0.00 0.00 0.00 33 1005.0
20260509214551 66 273 2.0 11.0 0.00 0.00 0.00 34 1004.6
20260509213053 67 310 3.0 10.0 0.00 0.00 0.00 35 1004.3
20260509211554 67 348 3.0 11.0 0.00 0.00 0.00 35 1004.0
20260509210059 67 39 4.0 11.0 0.00 0.00 0.00 36 1004.1
20260509204559 67 292 1.0 11.0 0.00 0.00 0.00 37 1003.8
20260509203055 68 257 4.0 10.0 0.00 0.00 0.00 37 1003.5
20260509201558 69 291 5.0 12.0 0.00 0.00 0.00 35 1003.5
20260509200105 68 302 3.0 10.0 0.00 0.00 0.00 35 1003.2